This is the latest recevied weather packets stored in our database for station/object N7CEE. If no packets are shown the sender has not sent any weather packets the latest 10 day(s).
| Time | Temp. | Humidity | Pressure | Rain* | Wind** | Luminosity | Snow |
|---|---|---|---|---|---|---|---|
| 1777411863 | 17.78° C | 17% | 1024.2 hPa | 0 mm | - | 709 W/m² | - |
| 1777411561 | 17.78° C | 16% | 1024.2 hPa | 0 mm | - | 718 W/m² | - |
| 1777411256 | 16.67° C | 18% | 1024.2 hPa | 0 mm | - | 729 W/m² | - |
| 1777410951 | 16.67° C | 18% | 1024.5 hPa | 0 mm | - | 738 W/m² | - |
| 1777410650 | 17.78° C | 17% | 1024.4 hPa | 0 mm | - | 748 W/m² | - |
| 1777410346 | 17.78° C | 17% | 1024.4 hPa | 0 mm | - | 756 W/m² | - |
| 1777410040 | 17.22° C | 17% | 1024.5 hPa | 0 mm | - | 775 W/m² | - |
| 1777409734 | 16.67° C | 18% | 1024.1 hPa | 0 mm | - | 788 W/m² | - |
| 1777409430 | 16.67° C | 18% | 1024.6 hPa | 0 mm | - | 718 W/m² | - |
| 1777409126 | 16.67° C | 17% | 1024.7 hPa | 0 mm | - | 806 W/m² | - |
| 1777408823 | 16.11° C | 18% | 1024.6 hPa | 0 mm | - | 668 W/m² | - |
| 1777408519 | 16.67° C | 17% | 1024.6 hPa | 0 mm | - | 348 W/m² | - |
| 1777408219 | 16.67° C | 16% | 1024.6 hPa | 0 mm | - | 310 W/m² | - |
| 1777407914 | 17.78° C | 16% | 1024.5 hPa | 0 mm | - | 565 W/m² | - |
| 1777407612 | 16.67° C | 18% | 1024.7 hPa | 0 mm | - | 624 W/m² | - |
| 1777407312 | 17.22° C | 16% | 1024.5 hPa | 0 mm | - | 475 W/m² | - |
| 1777407007 | 17.78° C | 16% | 1024.5 hPa | 0 mm | - | 572 W/m² | - |
| 1777406702 | 16.67° C | 16% | 1024.5 hPa | 0 mm | - | 859 W/m² | - |
| 1777406397 | 16.67° C | 17% | 1024.9 hPa | 0 mm | - | 853 W/m² | - |
| 1777406097 | 16.11° C | 16% | 1024.7 hPa | 0 mm | - | 884 W/m² | - |
| 1777405793 | 16.11° C | 17% | 1024.6 hPa | 0 mm | - | 654 W/m² | - |
| 1777405489 | 16.11° C | 16% | 1024.6 hPa | 0 mm | - | 570 W/m² | - |
| 1777405188 | 16.67° C | 17% | 1024.6 hPa | 0 mm | - | 673 W/m² | - |
| 1777404884 | 17.22° C | 19% | 1024.4 hPa | 0 mm | - | 647 W/m² | - |
| 1777404582 | 16.67° C | 18% | 1024.5 hPa | 0 mm | - | 873 W/m² | - |
* Rain latest hour (hover to see other rain measurements)
** Current wind speed in m/s (hover to see current wind gust speed)